This is the latest recevied weather packets stored in our database for station/object AB4KN. If no packets are shown the sender has not sent any weather packets the latest 10 day(s).
| Time | Temp. | Humidity | Pressure | Rain* | Wind** | Luminosity | Snow |
|---|---|---|---|---|---|---|---|
| 1777413268 | 17.78° C | 86% | 1023.6 hPa | 0 mm | - | 45 W/m² | - |
| 1777412963 | 17.78° C | 86% | 1023.8 hPa | 0 mm | - | 35 W/m² | - |
| 1777412662 | 17.78° C | 86% | 1023.8 hPa | 0 mm | - | 24 W/m² | - |
| 1777412361 | 17.78° C | 86% | 1023.8 hPa | 0 mm | - | 22 W/m² | - |
| 1777412061 | 17.78° C | 86% | 1023.9 hPa | 0 mm | - | 19 W/m² | - |
| 1777411755 | 17.78° C | 86% | 1024 hPa | 0 mm | - | 20 W/m² | - |
| 1777411450 | 17.22° C | 86% | 1024 hPa | 0 mm | - | 30 W/m² | - |
| 1777411144 | 17.78° C | 86% | 1024 hPa | 0 mm | - | 41 W/m² | - |
| 1777410844 | 17.78° C | 86% | 1024.2 hPa | 0 mm | - | 48 W/m² | - |
| 1777410538 | 17.78° C | 85% | 1024 hPa | 0 mm | - | 45 W/m² | - |
| 1777410237 | 17.78° C | 86% | 1024.1 hPa | 0 mm | - | 36 W/m² | - |
| 1777409933 | 17.22° C | 85% | 1024.4 hPa | 0 mm | - | 36 W/m² | - |
| 1777409628 | 17.78° C | 85% | 1024.5 hPa | 0 mm | - | 43 W/m² | - |
| 1777409324 | 17.78° C | 85% | 1024.5 hPa | 0 mm | - | 57 W/m² | - |
| 1777409019 | 17.22° C | 85% | 1024.6 hPa | 0 mm | - | 69 W/m² | - |
| 1777408717 | 17.22° C | 86% | 1024.6 hPa | 0 mm | - | 62 W/m² | - |
| 1777408413 | 17.22° C | 87% | 1024.5 hPa | 0 mm | - | 79 W/m² | - |
| 1777408112 | 17.22° C | 88% | 1024.9 hPa | 0 mm | - | 75 W/m² | - |
| 1777407808 | 16.67° C | 89% | 1025 hPa | 0 mm | - | 70 W/m² | - |
| 1777407505 | 16.67° C | 89% | 1024.9 hPa | 0 mm | - | 48 W/m² | - |
| 1777407199 | 16.67° C | 89% | 1024.7 hPa | 0 mm | - | 40 W/m² | - |
| 1777406894 | 16.67° C | 89% | 1024.9 hPa | 0 mm | - | 50 W/m² | - |
| 1777406589 | 16.67° C | 89% | 1025.3 hPa | 0 mm | - | 33 W/m² | - |
| 1777406286 | 16.67° C | 89% | 1025.2 hPa | 0 mm | - | 32 W/m² | - |
| 1777405985 | 16.67° C | 89% | 1025.4 hPa | 0 mm | - | 32 W/m² | - |
* Rain latest hour (hover to see other rain measurements)
** Current wind speed in m/s (hover to see current wind gust speed)